STARLINK-36500, 67320

Orbit data source: Space-Track

STARLINK-36500, 67320 is a payload satellite owned by SpaceX/Seattle (US) in LEO that was launched on Sun, 04 Jan 2026 UTC via an FALCON 9 launch vehicle from the Air Force Eastern Test Range (AFETR). Payload-class satellites include a variety of spacecraft equipped with specific instruments for various scientific and technological missions. These include communications satellites like Starlink; space stations such as the ISS; scientific satellites like the Hubble; Earth observation satellites from companies like Planet Labs, Umbra, and HawkEye 360; GPS; miniature CubeSats for education and research; and military/defense satellites.

Loading next visibility...
Identifier
67320, 2026-002R
Orbit
LEO
Country
Flag of USUS
Related business
Manufacturer
SpaceX/Seattle
Mission
Operational Commercial Communications
Bus & Motor
STARLINK V2MO, Unknown motor
Mass
575 kg wet, ~530 kg dry
Launch date (UTC)
2026-01-04 (2 months ago)
Launch vehicle
FALCON 9
Launch site
Air Force Eastern Test Range (AFETR)
Object type
Payload
Rocket body
Debris
Shape & HBR
Box + 2 Pan, 17.7 m
Radar Cross Section
36.964 m²

Expand to show TLE details & history
Last TLE update: 1 day ago

TLE from 1 day ago
0 STARLINK-36500
1 67320U 26002R   26062.21253050  .00030364  00000-0  11075-2 0  9994
2 67320  43.0029   2.2543 0001099 286.0823  73.9907 15.27607038 10142
Epoch: 2026-03-03T05:06Z
TLE epoch observation values (Epoch: 2026-03-03T05:06:02.635Z)
Latitude
-0.00005°
Longitude
124.74844°
Altitude
482.536 km
Speed
7.626 km/s
True Right ascension
00h 09m 01s
True Declination
0° 00' 00"
Sunlit
Object was in daylight at epoch
Visualization orbit readout
Latitude
Unknown
Longitude
Unknown
Altitude
Unknown
Speed
Unknown
Apparent Right ascension
Unknown
Apparent Declination
Unknown
Sunlit
N/A
Visualization observer readout
Local Sidereal Time
09:11:44
Azimuth
Unknown
Elevation
Unknown
Doppler factor
Unknown
Orbital elements
Apogee altitude
485.667 km
Perigee altitude
484.159 km
Semi-major axis
6,863.05 km
Eccentricity
0.00011
Inclination
43.0029°
RAAN
2.2543°
Arg. of periapsis
286.0823°
True anomaly
74.00281°
Mean anomaly
73.9907°
Eccentric anomaly
73.99675°
Mean motion
3.8174 °/min
Orbital period
94.31 mins
BSTAR
0.0011075
Loading maneuver chart data...
Computing Atmospheric mass density...
Loading historical data...
Loading historical data...
Loading historical data...
Loading historical data...
Loading historical data...
Loading historical data...
Loading historical data...

Documentation

Showing up to 5 results
|